DW5977 Weather Reports


Display with metric or nautical units.
time (UTC)temp
F
wind
direction
speed
MPH
gust
MPH
rain 1hr
in
rain 24hr
in
rain mn
in
humidity
%
barometer
mb
20260901064003 69 0 0.0 0.0 0.00 0.75 0.00 93 1014.1
20260901063503 69 0 0.0 0.0 0.00 0.75 0.00 93 1014.2
20260901063003 69 0 0.0 0.0 0.00 0.76 0.00 93 1014.2
20260901062503 69 0 0.0 0.0 0.00 0.76 0.00 93 1014.2
20260901062003 69 0 0.0 0.0 0.00 0.76 0.00 93 1014.4
20260901061503 69 0 0.0 0.0 0.00 0.76 0.00 93 1014.4
20260901061003 69 0 0.0 0.0 0.00 0.76 0.00 93 1014.5
20260901060503 69 0 0.0 0.0 0.00 0.76 0.00 93 1014.5
20260901060003 69 0 0.0 0.0 0.00 0.76 0.00 93 1014.5
20260901055503 69 0 0.0 0.0 0.00 0.76 0.00 93 1014.6
20260901055003 69 0 0.0 0.0 0.00 0.76 0.00 93 1014.6
20260901054524 69 0 0.0 0.0 0.00 0.76 0.00 93 1014.6
20260901054003 69 0 0.0 0.0 0.00 0.76 0.00 93 1014.7
20260901053503 69 0 0.0 0.0 0.00 0.76 0.00 93 1014.7
20260901053003 69 0 0.0 0.0 0.00 0.76 0.00 93 1014.7
20260901052503 69 0 0.0 0.0 0.00 0.76 0.00 93 1014.7
20260901052003 69 0 0.0 0.0 0.00 0.76 0.00 93 1014.7
20260901051503 69 0 0.0 0.0 0.00 0.76 0.00 93 1014.9
20260901051003 69 0 0.0 0.0 0.00 0.76 0.00 93 1014.9
20260901050503 69 0 0.0 0.0 0.00 0.76 0.00 93 1014.9
20260901050003 69 0 0.0 0.0 0.00 0.76 0.00 93 1014.9
20260901045503 69 0 0.0 0.0 0.01 0.76 0.00 93 1014.9
20260901045003 69 0 0.0 0.0 0.01 0.76 0.00 93 1014.9
20260901044524 69 0 0.0 0.0 0.01 0.76 0.00 93 1015.2
20260901044003 69 0 0.0 0.0 0.01 0.76 0.00 93 1015.5
20260901043503 69 0 0.0 0.0 0.01 0.76 0.00 93 1015.4
20260901043003 69 0 0.0 0.0 0.01 0.76 0.00 93 1015.4
20260901042503 69 0 0.0 0.0 0.01 0.76 0.00 93 1015.5
20260901042003 69 0 0.0 0.0 0.01 0.76 0.00 93 1015.5
20260901041524 69 0 0.0 0.0 0.01 0.76 0.00 93 1015.5
20260901041003 69 0 0.0 0.0 0.01 0.76 0.00 93 1015.6
20260901040503 69 0 0.0 0.0 0.01 0.77 0.00 93 1015.4
20260901040003 69 216 0.0 2.0 0.01 0.77 0.00 92 1015.4
20260901035524 69 216 1.0 2.0 0.00 0.76 0.76 92 1015.5
20260901035003 69 216 0.0 2.0 0.00 0.76 0.76 92 1015.5
20260901034503 69 216 0.0 2.0 0.00 0.76 0.76 92 1015.5
20260901034003 69 0 0.0 0.0 0.00 0.76 0.76 92 1015.6
20260901033503 69 0 0.0 0.0 0.00 0.76 0.76 92 1015.7
20260901033003 69 216 0.0 2.0 0.00 0.76 0.76 92 1015.7
20260901032524 69 216 0.0 3.0 0.00 0.76 0.76 92 1015.6
20260901032003 69 216 0.0 3.0 0.00 0.76 0.76 92 1015.6
20260901031504 69 0 0.0 0.0 0.00 0.76 0.76 92 1015.6
20260901031003 69 0 0.0 0.0 0.00 0.76 0.76 92 1015.7
20260901030503 69 0 0.0 0.0 0.00 0.76 0.76 92 1015.8
20260901030003 69 0 0.0 0.0 0.00 0.76 0.76 92 1016.0
20260901025503 69 0 0.0 0.0 0.00 0.76 0.76 92 1016.0
20260901025003 69 0 0.0 0.0 0.00 0.76 0.76 92 1016.0
20260901024524 69 0 0.0 0.0 0.00 0.77 0.76 92 1016.1
20260901024003 69 0 0.0 0.0 0.00 0.77 0.76 92 1016.2
20260901023503 69 0 0.0 0.0 0.00 0.78 0.76 92 1016.2
20260901023003 70 0 0.0 0.0 0.00 0.81 0.76 92 1016.3
20260901022503 70 0 0.0 0.0 0.00 0.83 0.76 92 1016.2
20260901022003 70 0 0.0 0.0 0.00 0.84 0.76 92 1016.3
20260901021524 70 0 0.0 0.0 0.00 0.85 0.76 92 1016.4
20260901021003 70 0 0.0 0.0 0.00 0.86 0.76 92 1016.5
20260901020503 70 0 0.0 0.0 0.00 0.88 0.76 92 1016.5
20260901020003 70 0 0.0 0.0 0.00 0.88 0.76 92 1016.5
20260901015503 70 0 0.0 0.0 0.00 0.88 0.76 92 1016.5
20260901015003 70 0 0.0 0.0 0.00 0.88 0.76 92 1016.4
20260901014503 70 0 0.0 0.0 0.00 0.88 0.76 92 1016.5
20260901014024 70 0 0.0 0.0 0.00 0.88 0.76 91 1016.6
20260901013503 70 0 0.0 0.0 0.00 0.88 0.76 91 1016.5
20260901013003 70 0 0.0 0.0 0.00 0.88 0.76 91 1016.5
20260901012503 70 0 0.0 0.0 0.00 0.88 0.76 91 1016.6
20260901012003 70 0 0.0 0.0 0.00 0.88 0.76 91 1016.5
20260901011524 70 0 0.0 0.0 0.00 0.88 0.76 91 1016.5
20260901011004 70 0 0.0 0.0 0.00 0.88 0.76 91 1016.5
20260901010503 70 0 0.0 0.0 0.00 0.88 0.76 91 1016.5
20260901010003 71 0 0.0 0.0 0.00 0.88 0.76 91 1016.4
20260901005503 71 0 0.0 0.0 0.00 0.88 0.76 91 1016.3
20260901005003 71 0 0.0 0.0 0.00 0.88 0.76 91 1016.4
20260901004503 71 0 0.0 0.0 0.00 0.88 0.76 91 1016.5
20260901004003 71 0 0.0 0.0 0.00 0.88 0.76 91 1016.5
20260901003503 71 0 0.0 0.0 0.00 0.88 0.76 90 1016.4
20260901003003 71 216 0.0 1.0 0.00 0.88 0.76 91 1016.3
20260901002503 71 216 0.0 1.0 0.00 0.88 0.76 90 1016.3
20260901002003 71 216 0.0 1.0 0.00 0.88 0.76 90 1016.2
20260901001503 71 216 0.0 1.0 0.00 0.88 0.76 90 1016.2
20260901001003 71 216 0.0 1.0 0.00 0.88 0.76 90 1016.2
20260901000503 71 216 0.0 1.0 0.00 0.88 0.76 90 1016.2
20260901000024 72 216 0.0 3.0 0.00 0.88 0.76 90 1016.3
20260831235524 72 216 0.0 3.0 0.00 0.88 0.76 90 1016.3
20260831235003 72 216 0.0 2.0 0.00 0.88 0.76 90 1016.3
20260831234503 72 216 0.0 1.0 0.00 0.88 0.76 90 1016.3
20260831234003 72 216 0.0 1.0 0.00 0.88 0.76 90 1016.3
20260831233503 72 216 0.0 2.0 0.00 0.88 0.76 90 1016.1
20260831233003 72 216 0.0 2.0 0.00 0.88 0.76 89 1016.2
20260831232503 72 0 0.0 0.0 0.00 0.88 0.76 89 1016.2
20260831232003 72 0 0.0 0.0 0.00 0.88 0.76 89 1016.2
20260831231524 72 216 0.0 3.0 0.00 0.88 0.76 89 1016.0
20260831231003 72 216 0.0 3.0 0.00 0.88 0.76 89 1016.2
20260831230503 72 216 0.0 2.0 0.00 0.88 0.76 89 1016.2
20260831230003 73 216 0.0 2.0 0.00 0.88 0.76 89 1016.3
20260831225503 73 216 1.0 3.0 0.00 0.88 0.76 89 1016.3
20260831225003 73 216 1.0 3.0 0.00 0.88 0.76 89 1016.4
20260831224503 73 216 1.0 3.0 0.00 0.88 0.76 89 1016.3
20260831224003 73 216 1.0 4.0 0.00 0.88 0.76 90 1016.3
20260831223503 73 216 2.0 5.0 0.00 0.88 0.76 89 1016.3
20260831223003 73 217 2.0 6.0 0.00 0.88 0.76 89 1016.3
20260831222503 73 217 2.0 6.0 0.00 0.88 0.76 90 1016.4
20260831222003 73 217 2.0 7.0 0.00 0.88 0.76 90 1016.5
20260831221503 73 210 2.0 7.0 0.00 0.88 0.76 90 1016.5
20260831221003 73 208 3.0 9.0 0.00 0.88 0.76 90 1016.4
20260831220503 73 212 3.0 10.0 0.00 0.88 0.76 90 1016.4
20260831220003 73 220 3.0 10.0 0.00 0.88 0.76 90 1016.5
20260831215503 73 227 3.0 8.0 0.00 0.88 0.76 90 1016.6
20260831215003 73 220 3.0 8.0 0.00 0.88 0.76 90 1016.7
20260831214503 73 220 4.0 11.0 0.00 0.88 0.76 90 1016.7
20260831214003 73 227 3.0 11.0 0.00 0.88 0.76 90 1016.6
20260831213503 73 227 3.0 6.0 0.00 0.88 0.76 91 1016.6
20260831213003 73 224 3.0 9.0 0.00 0.88 0.76 91 1016.5
20260831212503 73 221 3.0 9.0 0.00 0.88 0.76 91 1016.4
20260831212003 73 222 3.0 7.0 0.00 0.88 0.76 91 1016.4
20260831211524 73 222 2.0 7.0 0.00 0.88 0.76 91 1016.6
20260831211003 73 220 2.0 7.0 0.00 0.88 0.76 91 1016.5
20260831210503 73 220 2.0 7.0 0.00 0.88 0.76 91 1016.4
20260831210004 73 222 2.0 6.0 0.01 0.88 0.76 91 1016.4
20260831205524 73 222 2.0 6.0 0.01 0.88 0.76 91 1016.3
20260831205003 73 223 2.0 8.0 0.01 0.88 0.76 91 1016.3
20260831204503 72 222 2.0 8.0 0.02 0.88 0.76 91 1016.2
20260831204003 72 221 2.0 5.0 0.02 0.88 0.76 91 1016.2
20260831203503 72 220 2.0 6.0 0.02 0.88 0.76 91 1016.2
20260831203024 72 218 1.0 6.0 0.03 0.88 0.76 91 1016.3
20260831202503 72 216 1.0 4.0 0.03 0.88 0.76 91 1016.3
20260831202003 72 216 1.0 4.0 0.03 0.88 0.76 91 1016.3
20260831201503 72 216 1.0 4.0 0.03 0.88 0.76 91 1016.3
20260831201024 72 216 1.0 3.0 0.04 0.88 0.76 91 1016.5
20260831200503 72 216 1.0 3.0 0.04 0.88 0.76 91 1016.5
20260831200003 72 216 1.0 4.0 0.03 0.87 0.75 91 1016.6
20260831195503 72 216 1.0 4.0 0.03 0.87 0.75 91 1016.5
20260831195003 72 216 1.0 4.0 0.03 0.87 0.75 91 1016.6
20260831194503 72 216 0.0 4.0 0.03 0.86 0.74 91 1016.7
20260831194003 72 217 0.0 2.0 0.03 0.86 0.74 91 1016.6
20260831193524 72 217 1.0 4.0 0.05 0.86 0.74 91 1016.7
20260831193003 72 217 1.0 4.0 0.05 0.85 0.73 91 1016.8
20260831192503 72 217 0.0 3.0 0.05 0.85 0.73 91 1016.8
20260831192003 72 217 1.0 3.0 0.05 0.85 0.73 91 1016.7
20260831191503 72 217 1.0 4.0 0.05 0.85 0.73 91 1016.8
20260831191024 71 217 1.0 4.0 0.04 0.84 0.72 91 1016.9
20260831190503 71 217 2.0 5.0 0.05 0.84 0.72 90 1017.0
20260831190003 71 217 1.0 5.0 0.06 0.84 0.72 90 1017.0
20260831185524 71 217 2.0 5.0 0.06 0.84 0.72 90 1016.9
20260831185003 71 218 2.0 5.0 0.06 0.84 0.72 90 1017.0
20260831184524 72 218 2.0 5.0 0.05 0.83 0.71 89 1017.2
20260831184003 72 218 1.0 4.0 0.05 0.83 0.71 90 1017.3
20260831183524 72 217 1.0 4.0 0.04 0.81 0.69 90 1017.4
20260831183003 72 217 1.0 4.0 0.03 0.80 0.68 90 1017.3
20260831182503 72 217 1.0 4.0 0.03 0.80 0.68 90 1017.4
20260831182003 72 217 1.0 4.0 0.03 0.80 0.68 89 1017.4
20260831181503 72 217 1.0 5.0 0.03 0.80 0.68 89 1017.4
20260831181003 72 218 1.0 5.0 0.03 0.80 0.68 89 1017.4
20260831180503 72 218 1.0 4.0 0.02 0.79 0.67 89 1017.4
20260831180003 72 218 0.0 3.0 0.01 0.78 0.66 89 1017.5
20260831175503 72 218 0.0 3.0 0.01 0.78 0.66 90 1017.5
20260831175003 72 218 0.0 3.0 0.01 0.78 0.66 90 1017.4
20260831174503 72 218 1.0 4.0 0.01 0.78 0.66 90 1017.5
20260831174003 72 218 1.0 4.0 0.01 0.78 0.66 90 1017.4
20260831173524 72 218 1.0 4.0 0.00 0.77 0.65 90 1017.5
20260831173003 72 218 1.0 4.0 0.00 0.77 0.65 91 1017.5
20260831172524 72 218 1.0 3.0 0.00 0.77 0.65 91 1017.4
20260831172003 71 218 1.0 6.0 0.00 0.77 0.65 92 1017.4
20260831171503 71 219 1.0 6.0 0.00 0.77 0.65 92 1017.4
20260831171003 70 219 1.0 5.0 0.00 0.77 0.65 93 1017.7
20260831170503 70 219 1.0 4.0 0.00 0.77 0.65 93 1017.8
20260831170003 70 219 1.0 4.0 0.00 0.77 0.65 93 1017.7
20260831165503 70 219 1.0 3.0 0.00 0.77 0.65 93 1017.7
20260831165003 70 219 2.0 5.0 0.00 0.77 0.65 93 1017.7
20260831164503 69 219 1.0 5.0 0.00 0.77 0.65 93 1017.7
20260831164003 69 219 1.0 4.0 0.00 0.77 0.65 94 1017.6
20260831163503 69 219 1.0 3.0 0.00 0.77 0.65 94 1017.6
20260831163003 68 219 0.0 3.0 0.00 0.77 0.65 94 1017.7
20260831162503 68 219 1.0 3.0 0.00 0.77 0.65 94 1017.7
20260831162003 68 219 0.0 3.0 0.00 0.77 0.65 94 1017.7
20260831161503 68 219 0.0 2.0 0.00 0.77 0.65 94 1017.9
20260831161003 68 219 1.0 2.0 0.00 0.77 0.65 94 1018.0
20260831160503 68 219 1.0 2.0 0.01 0.77 0.65 93 1018.1
20260831160003 68 219 0.0 3.0 0.01 0.77 0.65 94 1018.2
20260831155503 67 219 0.0 3.0 0.01 0.78 0.65 94 1018.3
20260831155003 67 219 1.0 4.0 0.02 0.80 0.65 94 1018.2
20260831154503 67 219 1.0 4.0 0.04 0.81 0.65 94 1018.3
20260831154003 67 219 1.0 3.0 0.06 0.82 0.65 94 1018.2
20260831153503 67 219 1.0 3.0 0.08 0.82 0.65 94 1018.2
20260831153003 67 219 1.0 3.0 0.13 0.82 0.65 93 1018.4
20260831152503 67 219 1.0 3.0 0.23 0.82 0.65 94 1018.4
20260831152003 67 219 0.0 2.0 0.30 0.82 0.65 94 1018.4
20260831151503 67 0 0.0 0.0 0.31 0.82 0.65 94 1018.3
20260831151003 67 0 0.0 0.0 0.31 0.82 0.65 94 1018.3
20260831150503 66 219 0.0 3.0 0.32 0.81 0.64 94 1018.3
20260831150003 66 219 1.0 3.0 0.35 0.81 0.64 93 1018.2
20260831145503 66 219 1.0 2.0 0.35 0.81 0.64 93 1018.2
20260831145003 66 219 1.0 3.0 0.35 0.80 0.63 93 1018.1
20260831144503 66 219 0.0 3.0 0.36 0.78 0.61 94 1018.1
20260831144003 66 0 0.0 0.0 0.36 0.76 0.59 93 1018.2
20260831143524 66 0 0.0 0.0 0.35 0.74 0.57 93 1018.2
20260831143003 66 0 0.0 0.0 0.30 0.69 0.52 93 1018.3
20260831142503 66 0 0.0 0.0 0.24 0.59 0.42 93 1018.3
20260831142003 66 219 0.0 2.0 0.21 0.52 0.35 94 1018.3
20260831141503 66 234 1.0 4.0 0.22 0.51 0.34 93 1018.1
20260831141003 66 235 1.0 4.0 0.22 0.51 0.34 93 1018.1
20260831140524 66 0 0.0 0.0 0.21 0.49 0.32 93 1018.2
20260831140024 66 237 0.0 1.0 0.19 0.46 0.29 93 1018.4
20260831135503 66 237 0.0 2.0 0.19 0.46 0.29 93 1018.4
20260831135003 66 237 0.0 3.0 0.18 0.45 0.28 93 1018.3
20260831134503 66 237 1.0 3.0 0.15 0.42 0.25 93 1018.3
20260831134003 66 237 1.0 3.0 0.13 0.40 0.23 93 1018.4
20260831133503 66 237 0.0 3.0 0.12 0.39 0.22 93 1018.4
20260831133003 66 237 0.0 2.0 0.12 0.39 0.22 93 1018.4
20260831132503 66 0 0.0 0.0 0.08 0.35 0.18 93 1018.5
20260831132003 66 237 0.0 2.0 0.04 0.31 0.14 93 1018.4
20260831131503 66 237 0.0 2.0 0.02 0.29 0.12 93 1018.4
20260831131003 66 237 0.0 2.0 0.02 0.29 0.12 93 1018.4
20260831130503 66 237 0.0 2.0 0.01 0.28 0.11 93 1018.3
20260831130003 66 0 0.0 0.0 0.00 0.27 0.10 93 1018.2
20260831125503 66 0 0.0 0.0 0.01 0.27 0.10 93 1018.1
20260831125003 66 0 0.0 0.0 0.01 0.27 0.10 93 1018.1
20260831124503 66 0 0.0 0.0 0.01 0.27 0.10 93 1017.9
20260831124003 66 237 0.0 2.0 0.01 0.27 0.10 93 1017.9
20260831123503 66 237 0.0 2.0 0.01 0.27 0.10 93 1018.0
20260831123003 66 237 0.0 1.0 0.01 0.27 0.10 93 1017.9
20260831122503 65 237 0.0 1.0 0.01 0.27 0.10 93 1018.1
20260831122003 65 237 0.0 1.0 0.01 0.27 0.10 93 1018.1
20260831121503 65 237 0.0 2.0 0.01 0.27 0.10 93 1018.1
20260831121003 65 237 0.0 2.0 0.01 0.27 0.10 93 1018.1
20260831120503 65 0 0.0 0.0 0.01 0.27 0.10 93 1018.3
20260831120003 65 0 0.0 0.0 0.01 0.27 0.10 93 1018.3
20260831115503 65 0 0.0 0.0 0.00 0.26 0.09 93 1018.3
20260831115003 65 0 0.0 0.0 0.00 0.26 0.09 93 1018.2
20260831114524 65 0 0.0 0.0 0.00 0.26 0.09 93 1018.3
20260831114003 65 237 0.0 2.0 0.00 0.26 0.09 93 1018.2
20260831113503 65 237 0.0 2.0 0.00 0.26 0.09 93 1018.3
20260831113003 65 237 0.0 2.0 0.00 0.26 0.09 93 1018.2
20260831112503 65 237 0.0 2.0 0.00 0.26 0.09 93 1018.2
20260831112003 65 237 0.0 1.0 0.00 0.26 0.09 93 1018.3
20260831111503 65 237 0.0 1.0 0.00 0.26 0.09 93 1018.4
20260831111003 65 237 0.0 2.0 0.00 0.26 0.09 93 1018.5
20260831110503 65 237 0.0 2.0 0.00 0.26 0.09 93 1018.3
20260831110003 65 0 0.0 0.0 0.00 0.26 0.09 93 1018.5
20260831105503 65 237 0.0 1.0 0.00 0.26 0.09 93 1018.4
20260831105003 65 237 0.0 2.0 0.00 0.26 0.09 93 1018.3
20260831104503 65 237 0.0 2.0 0.00 0.26 0.09 93 1018.4
20260831104003 65 0 0.0 0.0 0.00 0.26 0.09 93 1018.5
20260831103503 65 0 0.0 0.0 0.00 0.26 0.09 93 1018.5
20260831103003 65 0 0.0 0.0 0.00 0.26 0.09 93 1018.5
20260831102524 65 0 0.0 0.0 0.00 0.26 0.09 93 1018.4
20260831102003 65 0 0.0 0.0 0.00 0.26 0.09 93 1018.4
20260831101503 65 0 0.0 0.0 0.00 0.26 0.09 93 1018.4
20260831101003 65 0 0.0 0.0 0.00 0.26 0.09 93 1018.5
20260831100503 65 237 0.0 2.0 0.00 0.26 0.09 93 1018.5
20260831100003 65 237 0.0 4.0 0.00 0.26 0.09 93 1018.6
20260831095503 65 237 0.0 4.0 0.00 0.26 0.09 93 1018.5
20260831095003 65 237 0.0 2.0 0.00 0.26 0.09 93 1018.5
20260831094503 65 237 0.0 2.0 0.00 0.26 0.09 93 1018.4
20260831094003 65 0 0.0 0.0 0.00 0.26 0.09 93 1018.3
20260831093503 65 237 0.0 2.0 0.00 0.26 0.09 93 1018.2
20260831093003 65 237 0.0 2.0 0.00 0.26 0.09 93 1018.3
20260831092503 66 237 0.0 1.0 0.00 0.26 0.09 93 1018.3
20260831092003 65 237 0.0 1.0 0.00 0.26 0.09 93 1018.4
20260831091503 65 0 0.0 0.0 0.00 0.26 0.09 93 1018.4
20260831091003 65 0 0.0 0.0 0.00 0.26 0.09 93 1018.4
20260831090524 65 0 0.0 0.0 0.00 0.26 0.09 93 1018.6
20260831090003 66 0 0.0 0.0 0.01 0.26 0.09 93 1018.6
20260831085503 66 0 0.0 0.0 0.01 0.26 0.09 93 1018.6
20260831085003 66 0 0.0 0.0 0.01 0.26 0.09 93 1018.6
20260831084503 66 0 0.0 0.0 0.02 0.26 0.09 93 1018.6
20260831084024 66 0 0.0 0.0 0.02 0.26 0.09 93 1018.7
20260831083503 66 0 0.0 0.0 0.03 0.26 0.09 93 1018.8
20260831083003 66 0 0.0 0.0 0.03 0.26 0.09 93 1018.8
20260831082524 66 237 0.0 2.0 0.04 0.26 0.09 93 1018.8
20260831082003 66 237 0.0 2.0 0.04 0.26 0.09 93 1018.7
20260831081503 66 0 0.0 0.0 0.04 0.26 0.09 93 1018.8
20260831081003 66 0 0.0 0.0 0.05 0.26 0.09 93 1018.7
20260831080524 66 0 0.0 0.0 0.05 0.26 0.09 93 1018.8
20260831080003 66 0 0.0 0.0 0.05 0.25 0.08 93 1019.0
20260831075524 66 0 0.0 0.0 0.05 0.25 0.08 93 1019.0
20260831075003 66 0 0.0 0.0 0.05 0.25 0.08 93 1019.0
20260831074503 66 0 0.0 0.0 0.04 0.24 0.07 93 1019.0
20260831074003 66 0 0.0 0.0 0.05 0.24 0.07 93 1019.0
20260831073503 66 237 0.0 1.0 0.04 0.23 0.06 93 1019.1
20260831073003 66 237 0.0 2.0 0.05 0.23 0.06 93 1019.2
20260831072503 66 237 0.0 2.0 0.04 0.22 0.05 93 1019.2
20260831072024 66 0 0.0 0.0 0.04 0.22 0.05 93 1019.3
20260831071503 66 0 0.0 0.0 0.04 0.22 0.05 93 1019.3
20260831071003 66 0 0.0 0.0 0.03 0.21 0.04 93 1019.2
20260831070503 66 0 0.0 0.0 0.03 0.21 0.04 93 1019.2
20260831070024 66 0 0.0 0.0 0.02 0.20 0.03 93 1019.2
20260831065524 66 0 0.0 0.0 0.02 0.20 0.03 93 1019.2
20260831065003 66 0 0.0 0.0 0.02 0.20 0.03 93 1019.2
20260831064524 66 0 0.0 0.0 0.02 0.20 0.03 93 1019.3